x

St Catherines Pt. (03866) Weather Station

3:00 - Wed 10th Feb 2016 All times are GMT.

  • Wind
    13mph
  • Aire Temp 48°f
  • Sea Pressure 999mb
  • St Catherines Pt.
  • St Catherines Pt.

More Historic Weather Station data

Upgrade to MSW Pro to gain access to the past 30 days of data for over 8000 Wavebouys and Weather Stations around the globe.

Join Pro

Comparision Forecast

View Surf forecast
   
mié 02/10 3:00 13
mph
999mb 48f
2:00 13
mph
999mb 46f
12:00 16
mph
998mb 45f
9:00 23 32 mph 997mb 44f
8:00 25 36 mph 996mb 44f
7:00 24 38 mph 995mb 43f
6:00 26 41 mph 995mb 43f
5:00 30 45 mph 995mb 43f
4:00 30 46 mph 994mb 44f
3:00 31 45 mph 994mb 44f
2:00 24 41 mph 993mb 45f
1:00 30 47 mph 993mb 44f
12:00 33 52 mph 992mb 44f
mar 02/09 11:00 34 47 mph 992mb 43f
10:00 31 46 mph 992mb 42f
9:00 30 41 mph 991mb 45f
8:00 26 44 mph 990mb 44f
7:00 31 43 mph 990mb 45f
5:00 21 29 mph 988mb 44f
4:00 15
mph
988mb 42f
2:00 13
mph
987mb 44f
1:00 15
mph
987mb 46f
12:00 15
mph
986mb 44f
11:00 11
mph
986mb 43f
9:00 1
mph
986mb 41f
8:00 7
mph
986mb 41f
7:00 6
mph
988mb 41f
6:00 18
mph
989mb 44f
5:00 13
mph
990mb 47f
4:00 18 30 mph 993mb 48f
3:00 23 36 mph 995mb 48f
2:00 29 44 mph 995mb 47f
1:00 34 44 mph 996mb 47f
lun 02/08 11:00 33 45 mph 997mb 47f
10:00 36 49 mph 997mb 48f
8:00 37 55 mph 996mb 48f
7:00 41 55 mph 996mb 48f
6:00 43 68 mph 995mb 47f
4:00 51 69 mph 992mb 49f
3:00 52 67 mph 991mb 49f
2:00 51 67 mph 990mb 49f
1:00 52 70 mph 989mb 49f
12:00 53 69 mph 989mb 49f
11:00 48 68 mph 988mb 49f
10:00 49 64 mph 988mb 49f
9:00 44 64 mph 987mb 48f
8:00 44 57 mph 987mb 48f
7:00 44 60 mph 987mb 48f
6:00 39 56 mph 987mb 47f
4:00 39 62 mph 987mb 48f
3:00 39 54 mph 987mb 48f
2:00 36 63 mph 987mb 50f
1:00 34 47 mph 987mb 51f
12:00 33 56 mph 987mb 49f
dom 02/07 11:00 37 60 mph 987mb 52f
10:00 39 52 mph 988mb 51f
9:00 31 47 mph 990mb 49f
8:00 29 45 mph 992mb 48f
7:00 30 47 mph 994mb 48f
6:00 31 44 mph 995mb 47f
4:00 36 54 mph 997mb 46f
3:00 29 45 mph 998mb 48f
2:00 26 38 mph 997mb 48f
1:00 22 47 mph 997mb 47f
12:00 29 39 mph 997mb 49f
11:00 30 40 mph 997mb 49f
10:00 31 44 mph 996mb 48f
9:00 32 43 mph 995mb 47f
7:00 34 43 mph 994mb 46f
6:00 29 43 mph 993mb 45f
5:00 26 41 mph 992mb 44f
4:00 25 46 mph 992mb 46f
3:00 29 45 mph 991mb 47f
2:00 28 46 mph 991mb 47f
1:00 24 40 mph 990mb 47f
sáb 02/06 11:00 14 47 mph 989mb 45f
10:00 36 49 mph 988mb 46f
9:00 22 44 mph 987mb 50f
8:00 30 46 mph 988mb 51f
6:00 23 38 mph 991mb 52f
5:00 25 38 mph 992mb 53f